QPF
0.05 0.00 0.01 0.00 0.02 0.01 0.01 0.00 0.00 0.00 0.00 0.00 0.00 0.00 0.00 0.00 0.00 0.00 0.00 0.00 0.00 0.00 0.01 0.01 0.02 0.05 0.04 0.03 0.02 0.03 0.01 0.01 0.01 0.00 0.00 0.01 0.01 0.01 0.04 0.09 0.07 0.01 0.02
0.00 0.00 0.00 0.01 0.00 0.01 0.02 0.00 0.00 0.00 0.00 0.00 0.00 0.00 0.00 0.00 0.00 0.00 0.00 0.00 0.00 0.00 0.01 0.03 0.02 0.00 0.01 0.02 0.03 0.01 0.00 0.03 0.04 0.01 0.02 0.00 0.02 0.05 0.06 0.01 0.00 0.00 0.01
0.00 0.00 0.00 0.00 0.00 0.01 0.02 0.00 0.00 0.01 0.02 0.09 0.02 0.00 0.01 0.00 0.00 0.02 0.00 0.00 0.00 0.01 0.00 0.00 0.00 0.02 0.00 0.00 0.01 0.02 0.00 0.04 0.09 0.08 0.02 0.00 0.00 0.00 0.00 0.00 0.00 0.00 0.01
0.00 0.00 0.00 0.00 0.00 0.01 0.01 0.00 0.01 0.05 0.04 0.07 0.02 0.02 0.01 0.00 0.00 0.01 0.00 0.00 0.00 0.00 0.00 0.02 0.02 0.01 0.01 0.05 0.07 0.01 0.00 0.02 0.03 0.02 0.00 0.00 0.00 0.00 0.00 0.01 0.01 0.00 0.03
0.00 0.00 0.00 0.00 0.00 0.01 0.02 0.00 0.02 0.05 0.01 0.00 0.00 0.00 0.00 0.00 0.00 0.00 0.00 0.00 0.00 0.00 0.00 0.02 0.02 0.01 0.04 0.05 0.01 0.00 0.00 0.00 0.00 0.00 0.00 0.00 0.00 0.00 0.02 0.05 0.05 0.01 0.05
0.00 0.00 0.00 0.00 0.00 0.00 0.02 0.00 0.02 0.01 0.02 0.01 0.00 0.00 0.00 0.00 0.00 0.01 0.01 0.00 0.00 0.01 0.01 0.03 0.02 0.01 0.03 0.00 0.00 0.00 0.00 0.00 0.00 0.00 0.00 0.00 0.00 0.00 0.01 0.02 0.01 0.00 0.01
0.00 0.00 0.00 0.03 0.01 0.00 0.04 0.10 0.10 0.01 0.01 0.01 0.00 0.02 0.01 0.00 0.00 0.00 0.00 0.01 0.01 0.01 0.00 0.00 0.02 0.04 0.02 0.00 0.00 0.00 0.00 0.00 0.00 0.00 0.00 0.00 0.00 0.00 0.00 0.00 0.01 0.01 0.02
0.00 0.00 0.00 0.03 0.01 0.00 0.02 0.10 0.04 0.01 0.01 0.02 0.00 0.01 0.00 0.00 0.00 0.00 0.00 0.01 0.00 0.00 0.00 0.02 0.04 0.12 0.13 0.03 0.00 0.01 0.00 0.00 0.00 0.00 0.00 0.00 0.00 0.01 0.00 0.00 0.02 0.02 0.01
0.00 0.00 0.00 0.00 0.00 0.00 0.04 0.08 0.03 0.00 0.01 0.00 0.00 0.00 0.00 0.00 0.00 0.00 0.01 0.01 0.02 0.00 0.02 0.04 0.03 0.09 0.06 0.00 0.00 0.00 0.00 0.00 0.00 0.01 0.00 0.00 0.03 0.03 0.03 0.01 0.00 0.01 0.02
0.00 0.00 0.00 0.00 0.00 0.00 0.02 0.04 0.02 0.00 0.01 0.00 0.00 0.02 0.03 0.00 0.00 0.01 0.02 0.03 0.09 0.05 0.03 0.01 0.00 0.00 0.00 0.00 0.00 0.00 0.00 0.00 0.00 0.00 0.00 0.00 0.01 0.00 0.00 0.01 0.02 0.00 0.01
0.00 0.00 0.00 0.00 0.00 0.07 0.03 0.02 0.02 0.04 0.00 0.00 0.00 0.01 0.08 0.01 0.00 0.03 0.01 0.01 0.08 0.09 0.00 0.00 0.00 0.01 0.00 0.00 0.00 0.00 0.00 0.00 0.00 0.00 0.00 0.00 0.02 0.01 0.00 0.00 0.00 0.00 0.00
0.00 0.00 0.00 0.00 0.00 0.00 0.00 0.00 0.00 0.00 0.00 0.00 0.00 0.00 0.03 0.00 0.00 0.00 0.00 0.00 0.01 0.00 0.00 0.00 0.00 0.03 0.03 0.00 0.00 0.00 0.00 0.00 0.00 0.00 0.00 0.00 0.00 0.00 0.00 0.00 0.00 0.00 0.00
0.00 0.00 0.00 0.00 0.00 0.00 0.00 0.00 0.00 0.00 0.00 0.00 0.00 0.00 0.00 0.00 0.00 0.00 0.00 0.00 0.00 0.00 0.00 0.00 0.01 0.00 0.00 0.00 0.00 0.00 0.00 0.00 0.00 0.00 0.00 0.00 0.00 0.00 0.00 0.00 0.00 0.00 0.00
0.00 0.00 0.00 0.00 0.00 0.00 0.00 0.00 0.00 0.00 0.00 0.00 0.00 0.00 0.00 0.00 0.00 0.00 0.00 0.00 0.00 0.00 0.00 0.01 0.00 0.00 0.00 0.00 0.00 0.00 0.00 0.00 0.00 0.00 0.00 0.00 0.00 0.00 0.00 0.00 0.00 0.00 0.00
0.00 0.00 0.00 0.00 0.00 0.00 0.00 0.00 0.00 0.00 0.00 0.00 0.00 0.00 0.00 0.00 0.00 0.00 0.00 0.00 0.00 0.00 0.00 0.00 0.00 0.00 0.00 0.00 0.00 0.00 0.00 0.00 0.00 0.00 0.00 0.00 0.00 0.00 0.00 0.00 0.00 0.00 0.00
0.00 0.00 0.00 0.00 0.00 0.00 0.00 0.00 0.00 0.00 0.00 0.00 0.00 0.00 0.01 0.00 0.00 0.00 0.00 0.00 0.00 0.00 0.00 0.00 0.00 0.00 0.00 0.00 0.00 0.00 0.00 0.00 0.00 0.00 0.00 0.00 0.00 0.00 0.00 0.00 0.00 0.00 0.00
0.00 0.00 0.00 0.00 0.00 0.00 0.00 0.00 0.00 0.00 0.00 0.00 0.00 0.00 0.00 0.02 0.00 0.00 0.00 0.00 0.00 0.00 0.00 0.00 0.00 0.00 0.00 0.00 0.00 0.00 0.00 0.00 0.00 0.00 0.00 0.00 0.00 0.00 0.00 0.00 0.00 0.00 0.00
0.00 0.00 0.00 0.00 0.00 0.00 0.00 0.00 0.00 0.00 0.00 0.00 0.00 0.00 0.00 0.02 0.00 0.00 0.00 0.00 0.00 0.00 0.00 0.00 0.00 0.00 0.00 0.00 0.00 0.00 0.00 0.00 0.00 0.00 0.00 0.00 0.00 0.00 0.00 0.00 0.00 0.00 0.00
0.00 0.00 0.00 0.00 0.00 0.00 0.00 0.00 0.00 0.00 0.00 0.00 0.00 0.00 0.00 0.00 0.00 0.00 0.00 0.00 0.00 0.00 0.00 0.00 0.00 0.00 0.00 0.00 0.00 0.00 0.00 0.00 0.00 0.00 0.00 0.00 0.00 0.00 0.00 0.00 0.00 0.00 0.00
0.00 0.00 0.00 0.00 0.00 0.00 0.00 0.00 0.00 0.00 0.00 0.01 0.00 0.01 0.00 0.02 0.02 0.00 0.00 0.00 0.00 0.00 0.00 0.00 0.00 0.00 0.00 0.00 0.00 0.00 0.00 0.00 0.00 0.00 0.00 0.00 0.00 0.00 0.00 0.00 0.00 0.00 0.00
0.00 0.00 0.00 0.00 0.00 0.00 0.00 0.00 0.00 0.00 0.00 0.00 0.00 0.00 0.00 0.02 0.03 0.01 0.00 0.00 0.00 0.00 0.00 0.00 0.00 0.00 0.00 0.00 0.00 0.00 0.00 0.00 0.00 0.00 0.00 0.00 0.00 0.00 0.00 0.00 0.00 0.00 0.00
0.00 0.00 0.00 0.00 0.00 0.00 0.00 0.00 0.00 0.00 0.00 0.01 0.00 0.00 0.00 0.01 0.01 0.00 0.00 0.00 0.00 0.00 0.00 0.00 0.00 0.00 0.00 0.00 0.00 0.00 0.00 0.00 0.00 0.00 0.00 0.00 0.00 0.00 0.00 0.00 0.00 0.00 0.00
0.00 0.00 0.00 0.00 0.00 0.00 0.00 0.00 0.00 0.02 0.03 0.04 0.02 0.00 0.00 0.08 0.01 0.00 0.00 0.00 0.00 0.00 0.00 0.00 0.00 0.00 0.00 0.00 0.00 0.00 0.00 0.00 0.00 0.00 0.00 0.00 0.00 0.00 0.00 0.00 0.00 0.00 0.00
0.00 0.00 0.00 0.00 0.00 0.00 0.00 0.00 0.00 0.00 0.00 0.00 0.00 0.00 0.00 0.00 0.00 0.00 0.00 0.00 0.00 0.01 0.01 0.00 0.00 0.00 0.00 0.00 0.00 0.00 0.00 0.00 0.00 0.00 0.00 0.00 0.00 0.00 0.00 0.00 0.00 0.00 0.00
0.00 0.00 0.00 0.00 0.00 0.00 0.00 0.01 0.00 0.00 0.01 0.01 0.00 0.02 0.02 0.00 0.00 0.00 0.00 0.00 0.00 0.00 0.00 0.00 0.00 0.00 0.00 0.00 0.00 0.00 0.00 0.00 0.00 0.00 0.00 0.00 0.00 0.00 0.00 0.00 0.00 0.00 0.00
0.00 0.00 0.00 0.00 0.00 0.00 0.00 0.00 0.00 0.00 0.00 0.00 0.05 0.03 0.00 0.00 0.00 0.00 0.00 0.04 0.05 0.02 0.00 0.00 0.00 0.00 0.00 0.00 0.00 0.00 0.00 0.00 0.00 0.00 0.00 0.00 0.00 0.00 0.00 0.00 0.00 0.00 0.00
MSLP
1014.70 1015.40 1016.10 1016.25 1016.44 1016.59 1016.74 1016.88 1016.95 1017.02 1017.04 1017.16 1017.25 1017.30 1017.29 1017.29 1017.32 1017.33 1017.31 1017.26 1017.24 1017.24 1017.28 1017.41 1017.47 1017.52 1017.72 1017.86 1017.86 1017.83 1017.92 1017.94 1017.91 1017.99 1018.22 1018.29 1018.45 1018.42 1018.38 1018.40 1017.82 1018.26 1018.60
1014.14 1015.21 1016.19 1016.38 1016.62 1016.81 1016.98 1017.11 1017.16 1017.22 1017.34 1017.48 1017.52 1017.51 1017.50 1017.55 1017.59 1017.64 1017.57 1017.53 1017.54 1017.62 1017.70 1017.76 1017.79 1017.97 1018.10 1018.25 1018.34 1018.29 1018.26 1018.18 1018.09 1018.20 1018.35 1018.66 1018.89 1018.93 1018.86 1018.71 1018.77 1018.96 1019.01
1013.75 1015.18 1015.96 1016.63 1016.86 1017.01 1017.16 1017.32 1017.48 1017.49 1017.65 1017.72 1017.72 1017.71 1017.72 1017.72 1017.73 1017.76 1017.78 1017.81 1017.85 1017.91 1018.05 1018.09 1018.19 1018.31 1018.44 1018.63 1018.70 1018.62 1018.53 1018.50 1018.39 1018.23 1017.76 1018.36 1019.04 1019.26 1019.30 1019.31 1019.36 1019.42 1019.47
1013.50 1014.52 1015.70 1016.87 1017.14 1017.32 1017.50 1017.60 1017.70 1017.77 1017.84 1018.02 1017.88 1018.03 1017.96 1017.96 1017.92 1017.98 1018.04 1018.08 1018.14 1018.20 1018.30 1018.43 1018.50 1018.63 1018.79 1018.92 1018.87 1018.97 1018.85 1018.55 1018.30 1018.16 1017.61 1017.99 1019.01 1019.73 1019.73 1019.76 1019.74 1019.79 1019.75
1013.17 1014.10 1016.31 1017.03 1017.36 1017.44 1017.72 1017.83 1018.01 1018.03 1018.02 1018.15 1018.16 1018.23 1018.25 1018.26 1018.16 1018.21 1018.35 1018.32 1018.40 1018.44 1018.51 1018.69 1018.87 1018.89 1019.02 1019.11 1019.28 1019.25 1018.90 1018.57 1018.20 1017.58 1018.07 1018.40 1019.05 1019.98 1020.09 1020.10 1019.95 1020.08 1020.06
1013.44 1014.50 1016.68 1017.11 1017.49 1017.73 1017.84 1018.03 1018.17 1018.27 1018.36 1018.37 1018.39 1018.46 1018.49 1018.48 1018.46 1018.50 1018.58 1018.66 1018.72 1018.73 1018.78 1019.02 1019.16 1019.30 1019.35 1019.52 1019.57 1019.43 1019.20 1018.90 1018.79 1018.43 1018.92 1019.53 1019.97 1020.32 1020.40 1020.42 1020.43 1020.50 1020.44
1013.82 1015.10 1016.53 1017.33 1017.65 1017.92 1018.14 1018.35 1018.38 1018.48 1018.58 1018.68 1018.72 1018.76 1018.76 1018.72 1018.79 1018.83 1018.92 1018.98 1019.02 1019.10 1019.09 1019.22 1019.43 1019.66 1019.70 1019.86 1019.84 1019.61 1019.22 1019.06 1018.94 1019.36 1019.34 1019.90 1020.54 1020.75 1020.77 1020.79 1020.82 1020.88 1020.88
1013.38 1014.70 1016.54 1017.61 1017.85 1018.08 1018.37 1018.57 1018.68 1018.76 1018.88 1018.94 1019.03 1019.02 1019.04 1019.07 1019.14 1019.13 1019.21 1019.24 1019.30 1019.37 1019.38 1019.52 1019.66 1019.81 1020.00 1020.14 1020.17 1019.88 1019.54 1019.43 1019.38 1019.60 1019.81 1020.49 1021.04 1021.05 1021.10 1021.14 1021.16 1021.22 1021.22
1013.59 1014.65 1016.22 1016.96 1017.85 1018.27 1018.56 1018.76 1018.90 1018.92 1019.00 1019.11 1019.24 1019.30 1019.25 1019.30 1019.32 1019.38 1019.46 1019.62 1019.58 1019.62 1019.67 1019.85 1020.01 1020.16 1020.35 1020.45 1020.38 1020.02 1019.64 1019.42 1019.67 1019.93 1019.96 1020.76 1021.48 1021.41 1021.43 1021.49 1021.52 1021.49 1021.60
1013.71 1014.65 1015.03 1016.20 1016.85 1017.34 1018.32 1018.99 1019.04 1019.15 1019.23 1019.31 1019.38 1019.31 1019.05 1019.20 1019.46 1019.73 1019.81 1019.98 1019.94 1019.99 1020.01 1020.15 1020.29 1020.46 1020.60 1020.60 1020.40 1020.11 1019.68 1019.38 1019.15 1019.86 1020.58 1021.47 1021.65 1021.69 1021.70 1021.74 1021.76 1021.82 1021.84
1014.15 1014.03 1014.73 1015.39 1016.51 1017.75 1018.20 1018.96 1019.23 1019.24 1019.26 1019.25 1019.36 1019.31 1019.23 1018.42 1018.90 1019.71 1020.07 1020.25 1020.36 1020.40 1020.40 1020.38 1020.42 1020.45 1020.44 1020.47 1020.30 1020.20 1019.96 1018.58 1018.48 1019.52 1021.05 1021.95 1021.83 1021.84 1021.91 1022.00 1022.04 1022.08 1022.02
1014.34 1014.25 1014.70 1015.54 1016.44 1017.12 1017.30 1018.36 1018.28 1018.61 1018.57 1018.42 1018.51 1018.82 1019.35 1018.86 1018.83 1019.48 1020.25 1020.42 1020.44 1020.46 1020.46 1020.34 1020.28 1020.38 1019.88 1019.44 1019.41 1019.79 1019.05 1018.96 1018.75 1020.14 1021.50 1021.99 1022.01 1022.01 1022.08 1022.16 1022.23 1022.19 1022.25
1013.66 1014.13 1015.10 1015.95 1016.72 1017.64 1017.35 1017.09 1017.20 1017.79 1018.00 1018.72 1018.99 1018.78 1018.86 1018.78 1019.12 1019.15 1019.84 1019.87 1020.00 1020.31 1019.49 1019.95 1020.15 1020.14 1019.30 1018.50 1018.64 1019.04 1019.06 1018.86 1019.06 1020.53 1021.91 1022.12 1022.13 1022.18 1022.18 1022.22 1022.28 1022.35 1022.34
1013.82 1014.51 1015.05 1016.09 1017.29 1017.21 1016.97 1016.93 1017.32 1017.58 1018.32 1018.63 1019.18 1019.06 1018.84 1018.42 1018.63 1018.76 1019.24 1019.22 1019.43 1019.57 1019.26 1019.72 1019.45 1019.84 1019.50 1019.11 1019.02 1019.14 1018.73 1018.67 1018.94 1020.47 1021.98 1022.32 1022.34 1022.26 1022.18 1022.24 1022.30 1022.36 1022.34
1014.39 1014.98 1015.39 1016.34 1017.82 1017.82 1017.36 1017.26 1017.95 1017.52 1018.37 1018.60 1019.25 1019.02 1018.98 1019.24 1019.27 1019.14 1019.15 1019.28 1019.26 1019.27 1019.12 1019.18 1019.60 1019.74 1019.49 1019.45 1019.26 1019.42 1019.50 1019.47 1019.26 1019.85 1021.24 1022.15 1022.28 1022.30 1022.26 1022.25 1022.32 1022.38 1022.40
1014.75 1015.10 1015.78 1016.94 1017.89 1018.09 1017.77 1017.92 1018.15 1018.74 1017.94 1018.78 1018.83 1019.14 1018.98 1018.98 1019.20 1019.46 1019.35 1019.36 1019.29 1019.53 1019.68 1019.72 1020.26 1019.86 1019.85 1019.51 1020.06 1019.91 1019.90 1019.86 1019.88 1019.80 1020.67 1021.59 1021.94 1022.10 1022.20 1022.28 1022.33 1022.37 1022.33
1015.05 1015.74 1016.16 1016.82 1017.56 1018.23 1018.64 1018.45 1018.54 1018.38 1018.31 1018.68 1019.00 1019.16 1019.27 1019.78 1019.64 1019.41 1019.39 1019.69 1019.70 1019.96 1020.00 1019.86 1019.55 1019.46 1019.71 1019.73 1020.04 1019.94 1019.97 1020.25 1020.20 1020.42 1019.86 1020.64 1021.51 1021.81 1021.92 1022.14 1022.29 1022.29 1022.26
1014.98 1015.91 1016.44 1016.41 1017.28 1018.01 1018.43 1018.50 1018.56 1018.91 1018.89 1019.08 1018.86 1019.15 1019.39 1019.83 1019.94 1019.87 1019.40 1019.30 1019.60 1019.61 1019.83 1019.83 1020.05 1019.78 1019.75 1020.16 1020.28 1019.92 1019.65 1019.93 1020.26 1020.12 1020.08 1019.87 1020.32 1020.64 1021.80 1021.91 1022.02 1022.06 1022.14
1015.04 1016.02 1016.54 1016.63 1017.25 1018.01 1018.53 1018.40 1018.57 1018.59 1019.33 1019.21 1019.07 1019.23 1019.57 1019.74 1019.98 1019.50 1019.38 1019.66 1019.95 1019.72 1019.52 1019.79 1019.91 1020.03 1020.02 1019.78 1019.66 1019.94 1019.61 1019.55 1019.81 1019.54 1020.04 1019.87 1020.42 1019.96 1020.38 1021.58 1021.58 1021.75 1021.86
1015.09 1016.14 1016.66 1016.92 1017.49 1018.15 1018.60 1018.60 1018.23 1018.46 1019.00 1019.22 1019.34 1019.74 1019.57 1019.93 1020.06 1020.00 1019.47 1019.96 1020.01 1019.65 1020.21 1020.11 1020.28 1020.60 1020.11 1019.86 1019.54 1019.56 1019.45 1019.19 1019.16 1019.02 1019.33 1019.30 1020.09 1020.14 1019.92 1020.50 1020.71 1021.08 1021.50
1014.86 1015.99 1016.63 1017.04 1017.72 1018.24 1018.50 1018.22 1017.98 1018.75 1018.95 1019.28 1019.33 1019.29 1019.60 1019.98 1020.10 1020.20 1019.71 1020.16 1019.89 1019.45 1020.03 1020.32 1020.40 1020.42 1020.02 1019.88 1019.91 1019.12 1019.12 1019.34 1019.23 1018.92 1018.62 1018.66 1019.52 1019.37 1019.78 1020.03 1019.96 1020.06 1020.94
1014.56 1015.72 1016.55 1017.12 1017.84 1018.29 1018.20 1018.00 1017.68 1018.12 1018.50 1019.04 1019.08 1019.09 1019.22 1019.61 1020.19 1019.92 1019.93 1019.90 1019.87 1019.98 1020.51 1020.51 1020.52 1020.36 1020.06 1020.04 1019.96 1019.38 1018.62 1018.62 1018.46 1018.43 1018.86 1018.98 1019.27 1019.04 1019.34 1019.76 1019.99 1020.33 1020.25
1014.25 1015.49 1016.41 1017.14 1017.74 1018.30 1018.06 1018.22 1018.28 1018.06 1018.28 1019.06 1018.99 1018.88 1019.19 1019.88 1020.00 1019.94 1020.14 1020.02 1019.96 1019.94 1020.33 1020.66 1020.35 1020.32 1020.31 1020.18 1020.26 1019.68 1019.07 1018.46 1018.46 1018.74 1019.13 1019.04 1019.48 1019.11 1019.14 1019.70 1019.63 1020.01 1020.19
1013.93 1015.15 1016.12 1016.99 1017.50 1018.11 1018.21 1018.13 1018.27 1018.57 1018.36 1018.36 1018.74 1018.62 1018.94 1019.49 1019.73 1019.86 1020.11 1020.19 1020.24 1019.93 1020.13 1020.40 1020.10 1020.39 1020.28 1019.91 1019.72 1019.60 1019.73 1019.60 1019.26 1018.52 1018.75 1019.17 1019.24 1019.13 1019.34 1018.96 1019.24 1019.51 1019.78
1013.40 1014.57 1015.62 1016.66 1017.26 1017.63 1018.15 1018.22 1018.35 1018.25 1018.00 1018.14 1018.90 1019.05 1019.05 1019.60 1019.63 1019.70 1020.08 1020.30 1020.47 1020.14 1019.92 1020.36 1020.54 1020.56 1020.15 1019.87 1019.47 1019.40 1019.66 1019.24 1019.10 1018.64 1018.27 1018.72 1018.69 1018.79 1019.01 1018.76 1018.72 1018.71 1019.28
1012.87 1013.91 1014.95 1016.19 1017.00 1017.44 1017.98 1018.33 1018.30 1018.24 1018.40 1018.07 1019.05 1018.91 1019.02 1019.16 1019.43 1019.54 1019.93 1020.31 1020.58 1020.40 1020.31 1020.53 1020.72 1020.81 1020.80 1020.41 1020.16 1019.72 1019.82 1020.20 1019.23 1018.30 1018.49 1018.33 1018.43 1018.77 1018.69 1018.71 1018.79 1018.71 1018.85
Thickness
5763 5759 5754 5753 5752 5751 5750 5749 5749 5748 5748 5747 5745 5745 5746 5746 5746 5746 5747 5747 5748 5748 5748 5746 5746 5745 5743 5742 5743 5743 5742 5742 5742 5741 5739 5739 5737 5738 5738 5737 5743 5739 5738
5771 5763 5756 5755 5753 5752 5750 5749 5749 5748 5747 5745 5743 5744 5744 5744 5744 5744 5745 5745 5746 5745 5745 5743 5743 5742 5741 5739 5739 5740 5741 5742 5742 5741 5739 5737 5735 5735 5736 5738 5738 5737 5737
5777 5766 5760 5756 5754 5752 5751 5750 5748 5748 5745 5743 5743 5742 5743 5743 5743 5744 5744 5743 5744 5744 5742 5741 5740 5738 5738 5736 5737 5737 5741 5742 5742 5743 5745 5740 5735 5735 5736 5736 5736 5736 5736
5781 5773 5764 5756 5754 5752 5751 5749 5748 5747 5745 5743 5742 5741 5741 5741 5741 5741 5742 5742 5742 5742 5742 5740 5738 5736 5735 5735 5736 5738 5741 5743 5745 5746 5749 5745 5738 5734 5735 5735 5735 5735 5736
5786 5778 5761 5756 5754 5753 5751 5750 5748 5747 5746 5744 5742 5740 5738 5738 5738 5738 5739 5741 5742 5743 5742 5739 5734 5734 5733 5735 5736 5738 5742 5746 5748 5752 5748 5745 5740 5734 5734 5734 5735 5735 5735
5787 5778 5761 5758 5755 5754 5752 5751 5749 5747 5745 5744 5742 5740 5737 5737 5737 5737 5739 5740 5741 5743 5742 5738 5733 5731 5734 5734 5737 5739 5742 5745 5745 5747 5743 5738 5735 5733 5733 5733 5734 5734 5734
5786 5775 5765 5759 5756 5755 5753 5751 5750 5748 5746 5745 5742 5740 5739 5738 5738 5738 5739 5741 5741 5742 5743 5740 5736 5735 5735 5736 5738 5741 5744 5745 5745 5742 5741 5737 5732 5732 5732 5732 5732 5732 5732
5792 5781 5767 5758 5757 5755 5753 5751 5749 5748 5747 5745 5743 5742 5741 5740 5739 5740 5741 5742 5743 5743 5743 5741 5739 5737 5737 5737 5738 5741 5744 5744 5744 5741 5739 5734 5731 5731 5731 5731 5731 5730 5731
5792 5782 5770 5764 5757 5754 5753 5751 5750 5750 5749 5746 5745 5745 5744 5743 5743 5742 5742 5742 5743 5744 5744 5742 5740 5739 5738 5738 5739 5743 5746 5746 5744 5741 5740 5734 5730 5731 5731 5731 5730 5729 5729
5793 5785 5781 5772 5767 5763 5756 5752 5752 5751 5750 5749 5747 5748 5750 5748 5746 5744 5743 5742 5743 5743 5743 5742 5741 5739 5738 5739 5742 5745 5748 5750 5749 5743 5738 5732 5732 5732 5732 5731 5730 5729 5729
5788 5792 5786 5781 5772 5764 5760 5755 5753 5753 5752 5753 5752 5751 5751 5756 5753 5747 5745 5743 5743 5743 5743 5743 5743 5743 5743 5743 5746 5747 5749 5758 5758 5749 5738 5733 5734 5734 5734 5733 5733 5732 5733
5781 5789 5789 5782 5775 5771 5770 5762 5762 5759 5759 5761 5760 5758 5753 5756 5757 5752 5746 5746 5746 5745 5745 5747 5748 5747 5750 5753 5755 5754 5758 5758 5760 5748 5739 5736 5737 5737 5737 5737 5736 5736 5737
5790 5792 5788 5780 5775 5770 5771 5774 5773 5768 5765 5760 5759 5761 5759 5759 5757 5756 5751 5751 5752 5750 5755 5753 5752 5752 5759 5764 5763 5761 5761 5762 5761 5749 5740 5739 5740 5741 5742 5742 5741 5741 5742
5790 5788 5789 5780 5773 5774 5776 5778 5774 5772 5767 5764 5759 5759 5760 5764 5763 5763 5760 5759 5759 5759 5760 5760 5759 5756 5759 5763 5764 5763 5767 5767 5765 5753 5743 5742 5743 5745 5746 5746 5746 5746 5747
5786 5785 5785 5779 5770 5770 5775 5777 5772 5774 5769 5766 5762 5763 5763 5761 5761 5762 5762 5762 5763 5764 5765 5765 5761 5761 5763 5763 5765 5764 5764 5765 5766 5762 5752 5748 5747 5748 5749 5750 5750 5751 5752
5786 5785 5784 5776 5769 5769 5773 5773 5772 5767 5773 5768 5767 5764 5766 5765 5764 5762 5763 5764 5765 5764 5764 5765 5761 5763 5764 5765 5762 5764 5764 5765 5766 5768 5762 5756 5754 5754 5754 5755 5755 5756 5758
5786 5783 5781 5777 5771 5769 5767 5768 5770 5771 5772 5770 5768 5767 5767 5764 5765 5766 5766 5766 5766 5763 5764 5765 5768 5769 5767 5768 5767 5766 5767 5766 5767 5766 5771 5767 5762 5761 5761 5760 5761 5762 5763
5787 5781 5780 5783 5776 5771 5770 5769 5770 5769 5770 5768 5770 5769 5768 5766 5766 5766 5769 5771 5769 5769 5770 5770 5770 5771 5772 5768 5768 5770 5773 5771 5769 5771 5773 5776 5774 5773 5766 5767 5767 5768 5767
5788 5782 5779 5782 5778 5772 5769 5771 5771 5772 5768 5769 5771 5770 5768 5768 5767 5772 5774 5771 5769 5771 5773 5774 5774 5772 5771 5775 5776 5775 5777 5778 5777 5779 5776 5779 5776 5782 5780 5774 5775 5774 5773
5788 5782 5780 5780 5777 5772 5769 5770 5775 5774 5773 5771 5771 5769 5769 5768 5769 5770 5775 5771 5772 5774 5772 5774 5773 5770 5775 5777 5780 5780 5782 5785 5784 5786 5785 5787 5782 5783 5786 5783 5784 5782 5780
5789 5782 5779 5777 5774 5771 5770 5773 5776 5770 5773 5773 5772 5773 5771 5770 5770 5770 5774 5772 5775 5779 5776 5776 5775 5773 5777 5782 5775 5785 5786 5787 5788 5792 5795 5795 5789 5792 5791 5791 5792 5792 5787
5788 5782 5778 5776 5772 5771 5775 5778 5780 5776 5778 5779 5777 5776 5776 5772 5769 5773 5774 5774 5776 5777 5774 5776 5776 5775 5779 5782 5777 5780 5777 5786 5795 5799 5797 5797 5796 5798 5797 5795 5795 5793 5794
5788 5781 5777 5775 5772 5771 5776 5776 5775 5779 5780 5778 5779 5780 5777 5773 5772 5773 5772 5775 5776 5777 5777 5776 5780 5779 5774 5781 5783 5781 5774 5773 5787 5797 5795 5799 5797 5802 5802 5799 5800 5799 5798
5789 5785 5780 5777 5774 5772 5774 5776 5775 5771 5774 5781 5780 5783 5781 5778 5776 5775 5773 5773 5774 5779 5780 5778 5782 5781 5782 5780 5788 5793 5790 5788 5776 5780 5798 5799 5802 5804 5803 5807 5806 5805 5804
5794 5787 5783 5779 5776 5776 5774 5776 5776 5776 5782 5783 5779 5780 5782 5778 5778 5777 5774 5773 5773 5777 5781 5779 5778 5780 5786 5787 5789 5791 5790 5795 5796 5792 5786 5793 5805 5809 5809 5811 5812 5813 5809
5797 5791 5785 5778 5775 5776 5775 5774 5776 5777 5778 5781 5775 5780 5781 5783 5781 5780 5777 5774 5774 5776 5778 5777 5776 5778 5780 5786 5789 5792 5788 5779 5789 5798 5793 5799 5799 5805 5813 5813 5813 5815 5814